Welcome to the New NWS' Forecast!
Most changes are behind the scenes, but click here for differences you might notice.

Regional Weather Roundup (RWR)

Issued by National Weather Service (NWS)

                            
000
ASUS46 KSEW 151710
RWRWA 

WASHINGTON REGIONAL WEATHER ROUNDUP
NATIONAL WEATHER SERVICE SEATTLE WA
900 AM PST THU NOV 15 2018

NOTE:"FAIR" INDICATES FEW OR NO CLOUDS BELOW 12,000 FEET WITH NO 
SIGNIFICANT WEATHER AND/OR OBSTRUCTIONS TO VISIBILITY.

WAZ507-509-555>559-151800-
SEATTLE, TACOMA, EVERETT, AND VICINITY
  
CITY           SKY/WX    TMP DP  RH WIND       PRES   REMARKS
EVERETT        CLOUDY    49  47  93 SE6       30.34F                  
BOEING FIELD   CLOUDY    51  46  83 SE5       30.35F                  
RENTON         CLOUDY    52  47  83 S3        30.35F                  
SEATAC AIRPORT PTSUNNY   50  45  83 S5        30.34F                  
JBLM-MCCHORD   MOSUNNY   49  48  99 S3        30.35S                  
PUYALLUP       FAIR      46  45  93 CALM      30.34F                  
BREMERTON      CLOUDY    48  47  96 SW6       30.34F FOG              
JBLM-FT LEWIS  PTSUNNY   48  47  99 SE6       30.34F                  
TACOMA NARROWS CLOUDY    48  45  89 S5        30.34F                  
$$
 
WAZ001-503-506-510-514-515-151800-
NORTH INTERIOR
  
CITY           SKY/WX    TMP DP  RH WIND       PRES   REMARKS
BELLINGHAM     LGT RAIN  50  46  86 S8G17     30.31F                  
FRIDAY HARBOR  CLOUDY    50  48  93 SE5       30.33F FOG              
EASTSOUND      CLOUDY    50  50 100 S10       30.30F                  
PORT ANGELES   CLOUDY    48  42  80 SW6       30.31F                  
EDIZ HOOK      PTSUNNY   47  46  93 CALM      30.31F                  
PORT TOWNSEND  CLOUDY    46  46 100 SE7       30.32F                  
NAS WHIDBEY    CLOUDY    53  48  83 SE10      30.36F                  
ARLINGTON      CLOUDY    50  48  93 SE6       30.35F                  
BURLINGTON     CLOUDY    50  50 100 SE5       30.33F                  
$$
 
WAZ020-022-039-040-504-511-512-151800-
SOUTHWEST INTERIOR
  
CITY           SKY/WX    TMP DP  RH WIND       PRES   REMARKS
SHELTON        CLOUDY    50  48  93 SW6       30.32F                  
OLYMPIA        CLOUDY    45  45 100 SW6       30.36F FOG              
CHEHALIS       CLOUDY    45  45 100 SW6       30.37S FOG              
KELSO          CLOUDY    45  45 100 NE3       30.38F FOG              
VANCOUVER      CLOUDY    47  44  90 N3        30.36S FOG              
SCAPPOOSE, OR  CLOUDY    47  45  93 NE3       30.36S FOG              
PORTLAND, OR   FOG       47  46  97 CALM      30.37S VSB 1/8          
$$
 
WAZ021-516-517-151800-
WASHINGTON COAST
  
CITY           SKY/WX    TMP DP  RH WIND       PRES   REMARKS
FORKS          CLOUDY    49  48  97 CALM      30.33S                  
HOQUIAM        MOSUNNY   49  49 100 E3        30.35F FOG              
ASTORIA, OR    CLOUDY    45  45 100 CALM      30.36S FOG              
$$
 
WAZ019-023-024-040-567>569-151800-
CASCADE MOUNTAINS AND COLUMBIA GORGE
  
CITY           SKY/WX    TMP DP  RH WIND       PRES   REMARKS
STAMPEDE PASS  NOT AVBL                                               
TROUTDALE, OR  CLOUDY    46  44  93 SE7       30.36F FOG              
HOOD RIVER, OR FOG       37  37 100 S3        30.36F VSB 3/4          
THE DALLES, OR CLOUDY    42  40  92 N3        30.37S                  
$$

WAZ026-027-041>044-520-521-151800-
EAST SLOPES
  
CITY           SKY/WX    TMP DP  RH WIND       PRES   REMARKS
OMAK           CLOUDY    31  29  92 S5        30.35F                  
WENATCHEE      CLOUDY    34  31  88 SE5       30.34F                  
ELLENSBURG     MOSUNNY   46  37  71 E3        30.29S                  
YAKIMA         MOSUNNY   31  28  89 W5        30.35S FOG              
SUNNYSIDE ARPT FOG       28  28  99 CALM      30.37  VSB 1/2          
YAKIMA TC      FAIR      34  31  92 CALM      30.31F FOG              
$$

WAZ028-034-035-151800-
COLUMBIA BASIN
  
CITY           SKY/WX    TMP DP  RH WIND       PRES   REMARKS
EPHRATA        CLOUDY    36  31  82 CALM      30.34F                  
MOSES LAKE     PTSUNNY   33  28  81 NW3       30.36S                  
PASCO          SUNNY     35  31  85 CALM      30.40F FOG              
RICHLAND ARPT  CLOUDY    35  34  98 CALM      30.40  FOG              
HERMISTON, OR  SUNNY     40  37  89 CALM      30.35S                  
$$

WAZ036>038-151800-
NORTHEAST WASHINGTON
  
CITY           SKY/WX    TMP DP  RH WIND       PRES   REMARKS
SPOKANE GEIGER FOG       32  30  92 CALM      30.31F VSB 1/8          
SPOKANE FELTS  CLOUDY    33  30  88 CALM      30.33F FOG              
FAIRCHILD AFB    N/A     31  31 100 CALM      30.30S                  
COEURDALENE,ID NOT AVBL                                               
DEER PARK      CLOUDY    32  30  92 CALM      30.33S FOG              
$$

WAZ029>033-151800-
SOUTHEAST WASHINGTON
  
CITY           SKY/WX    TMP DP  RH WIND       PRES   REMARKS
PULLMAN        MOSUNNY   44  38  79 E3        30.33F                  
LEWISTON, ID   SUNNY     45  34  65 CALM      30.34F                  
WALLA WALLA    CLOUDY    34  31  88 S5        30.34F FOG              
PENDLETON, OR  SUNNY     41  37  86 SE5       30.32F                  
$$